Date String (YYYY-MM-DD hh:mm:ss) UTC,Instrument flags,Ambient pressure (hPa),Sample flow (lpm),Bypass flow (lpm),Sample temperature (°C),Ambient temperature (°C),ASC tube jacket temperature (°C),LED temperature (°C),Box temperature (°C),Sample RH (%),Span deviation,Mass concentration (μg/m³),Mass concentration (μg/m³),Mass concentration (μg/m³)
DateTimeUTC,F1_M11,P_M11,Q1_M11,Q2_M11,T1_M11,T2_M11,T3_M11,T4_M11,T5_M11,U1_M11,ZSPAN_M11,X0_M11,X2_M11,X1_M11
2022-11-10 16:00:00,,0821.1,4.99,0.00,22.2,21.0,00.0,31.0,24.1,07.3,0000.0,0000.88,0000.48,0000.30
2022-11-10 16:01:00,,0821.1,5.01,0.00,22.2,21.0,00.0,31.0,24.1,07.5,0000.0,0000.87,0000.47,0000.31
2022-11-10 16:02:00,,0821.0,5.02,0.00,22.2,21.0,00.0,31.0,24.1,07.4,0000.0,0000.88,0000.49,0000.31
2022-11-10 16:03:00,,0821.0,4.99,0.00,22.3,21.0,00.0,31.1,24.1,07.4,0000.0,0001.17,0000.49,0000.31
2022-11-10 16:04:00,,0820.9,4.99,0.00,22.3,21.0,00.0,31.1,24.1,07.3,0000.0,0001.25,0000.47,0000.31
2022-11-10 16:05:00,,0821.0,5.01,0.00,22.3,21.0,00.0,31.1,24.1,07.2,0000.0,0001.36,0000.48,0000.31
2022-11-10 16:06:00,,0821.0,5.01,0.00,22.3,21.0,00.0,31.1,24.1,07.2,0000.0,0001.40,0000.49,0000.31
2022-11-10 16:07:00,,0820.8,5.01,0.00,22.3,21.0,00.0,31.1,24.1,07.2,0000.0,0001.55,0000.49,0000.31
2022-11-10 16:08:00,,0820.7,5.00,0.00,22.3,20.9,00.0,31.1,24.1,07.4,0000.0,0001.62,0000.50,0000.30
2022-11-10 16:09:00,,0820.7,4.99,0.00,22.3,20.9,00.0,31.1,24.1,07.3,0000.0,0001.56,0000.51,0000.31
2022-11-10 16:10:00,,0820.6,4.99,0.00,22.3,20.9,00.0,31.1,24.1,07.2,0000.0,0001.57,0000.53,0000.32
2022-11-10 16:11:00,,0820.7,5.01,0.00,22.3,20.9,00.0,31.1,24.1,07.2,0000.0,0002.01,0000.60,0000.32
2022-11-10 16:12:00,,0820.8,5.01,0.00,22.3,20.9,00.0,31.1,24.1,07.4,0000.0,0003.30,0000.60,0000.32
2022-11-10 16:13:00,,0820.9,4.98,0.00,22.2,20.8,00.0,31.1,24.1,07.4,0000.0,0003.96,0000.58,0000.32
2022-11-10 16:14:00,,0820.9,5.00,0.00,22.2,20.8,00.0,31.1,24.1,07.5,0000.0,0003.90,0000.56,0000.32
2022-11-10 16:15:00,,0820.9,4.99,0.00,22.2,20.8,00.0,31.1,24.1,07.3,0000.0,0003.60,0000.56,0000.32
2022-11-10 16:16:00,,0820.6,5.00,0.00,22.2,20.8,00.0,31.1,24.0,07.2,0000.0,0004.22,0000.62,0000.33
2022-11-10 16:17:00,,0820.6,4.99,0.00,22.2,20.8,00.0,31.1,24.0,07.4,0000.0,0005.82,0000.84,0000.36
2022-11-10 16:18:00,,0820.6,5.01,0.00,22.2,20.7,00.0,31.1,24.0,07.2,0000.0,0005.74,0000.85,0000.36
2022-11-10 16:19:00,,0820.8,5.01,0.00,22.2,20.7,00.0,31.1,24.0,06.9,0000.0,0005.75,0000.85,0000.36
2022-11-10 16:20:00,,0820.9,4.99,0.00,22.2,20.7,00.0,31.1,24.0,06.9,0000.0,0005.69,0000.83,0000.35
2022-11-10 16:21:00,,0820.7,5.00,0.00,22.2,20.8,00.0,31.1,24.0,07.0,0000.0,0005.74,0000.82,0000.35
2022-11-10 16:22:00,,0820.7,5.00,0.00,22.2,20.7,00.0,31.0,24.0,07.3,0000.0,0005.86,0000.77,0000.36
2022-11-10 16:23:00,,0820.7,5.01,0.00,22.2,20.7,00.0,31.1,24.0,07.3,0000.0,0004.85,0000.77,0000.36
2022-11-10 16:24:00,,0820.9,5.01,0.00,22.2,20.7,00.0,31.0,24.0,07.1,0000.0,0004.08,0000.77,0000.36
2022-11-10 16:25:00,,0820.9,4.99,0.00,22.2,20.7,00.0,31.0,23.9,07.0,0000.0,0004.11,0000.79,0000.36
2022-11-10 16:26:00,,0820.9,4.99,0.00,22.2,20.7,00.0,31.0,24.0,07.1,0000.0,0004.18,0000.79,0000.36
2022-11-10 16:27:00,,0820.7,5.00,0.00,22.2,20.7,00.0,31.0,24.0,07.4,0000.0,0003.96,0000.77,0000.36
2022-11-10 16:28:00,,0820.7,5.01,0.00,22.2,20.8,00.0,31.0,24.0,07.3,0000.0,0001.92,0000.52,0000.32
2022-11-10 16:29:00,,0820.6,5.00,0.00,22.2,20.8,00.0,31.0,24.0,07.2,0000.0,0001.83,0000.51,0000.32
2022-11-10 16:30:00,,0820.7,4.98,0.00,22.2,20.8,00.0,31.0,24.1,07.1,0000.0,0001.82,0000.50,0000.32
2022-11-10 16:31:00,,0820.7,5.00,0.00,22.2,20.9,00.0,31.0,24.1,07.1,0000.0,0001.83,0000.51,0000.32
2022-11-10 16:32:00,,0820.7,5.01,0.00,22.2,20.9,00.0,31.0,24.1,07.1,0000.0,0002.19,0000.51,0000.32
2022-11-10 16:33:00,,0820.8,5.00,0.00,22.2,21.0,00.0,31.0,24.1,07.1,0000.0,0002.01,0000.53,0000.32
2022-11-10 16:34:00,,0820.8,5.01,0.00,22.2,21.0,00.0,31.0,24.2,07.1,0000.0,0001.60,0000.53,0000.31
2022-11-10 16:35:00,,0820.8,4.99,0.00,22.3,21.0,00.0,31.0,24.2,07.1,0000.0,0001.61,0000.54,0000.30
2022-11-10 16:36:00,,0820.8,5.00,0.00,22.3,21.1,00.0,31.0,24.2,07.1,0000.0,0001.66,0000.55,0000.30
2022-11-10 16:37:00,,0820.9,5.02,0.00,22.3,21.1,00.0,31.0,24.2,06.9,0000.0,0001.56,0000.53,0000.30
2022-11-10 16:38:00,,0820.9,4.98,0.00,22.3,21.1,00.0,31.0,24.2,07.1,0000.0,0001.40,0000.51,0000.30
2022-11-10 16:39:00,,0820.9,5.00,0.00,22.3,21.1,00.0,31.1,24.2,07.0,0000.0,0001.35,0000.49,0000.30
2022-11-10 16:40:00,,0820.9,5.00,0.00,22.3,21.1,00.0,31.1,24.2,07.0,0000.0,0001.30,0000.47,0000.30
2022-11-10 16:41:00,,0820.8,5.00,0.00,22.3,21.1,00.0,31.1,24.2,06.8,0000.0,0001.25,0000.46,0000.29
2022-11-10 16:42:00,,0820.8,4.99,0.00,22.4,21.1,00.0,31.1,24.2,06.7,0000.0,0001.23,0000.45,0000.29
2022-11-10 16:43:00,,0820.8,4.99,0.00,22.4,21.2,00.0,31.1,24.3,06.6,0000.0,0001.23,0000.47,0000.28
2022-11-10 16:44:00,,0820.9,5.01,0.00,22.4,21.2,00.0,31.1,24.3,06.7,0000.0,0001.19,0000.43,0000.29
2022-11-10 16:45:00,,0820.9,5.01,0.00,22.4,21.2,00.0,31.1,24.3,06.6,0000.0,0002.08,0000.42,0000.29
2022-11-10 16:46:00,,0820.8,5.00,0.00,22.4,21.3,00.0,31.1,24.3,06.7,0000.0,0002.06,0000.41,0000.29
2022-11-10 16:47:00,,0820.8,5.00,0.00,22.4,21.3,00.0,31.1,24.4,06.7,0000.0,0002.03,0000.38,0000.29
2022-11-10 16:48:00,,0820.8,4.98,0.00,22.5,21.3,00.0,31.2,24.4,06.7,0000.0,0002.07,0000.38,0000.29
2022-11-10 16:49:00,,0821.0,5.00,0.00,22.5,21.3,00.0,31.2,24.4,06.9,0000.0,0002.05,0000.37,0000.29
2022-11-10 16:50:00,,0821.0,5.01,0.00,22.5,21.4,00.0,31.2,24.4,07.2,0000.0,0002.07,0000.38,0000.29
2022-11-10 16:51:00,,0821.0,5.00,0.00,22.5,21.4,00.0,31.2,24.4,07.1,0000.0,0002.09,0000.39,0000.29
2022-11-10 16:52:00,,0821.0,5.01,0.00,22.5,21.4,00.0,31.2,24.5,06.6,0000.0,0002.09,0000.39,0000.29
2022-11-10 16:53:00,,0820.9,4.98,0.00,22.6,21.4,00.0,31.2,24.5,06.3,0000.0,0002.12,0000.41,0000.32
2022-11-10 16:54:00,,0820.8,4.99,0.00,22.6,21.5,00.0,31.2,24.5,06.4,0000.0,0002.38,0000.41,0000.33
2022-11-10 16:55:00,,0820.8,5.01,0.00,22.6,21.5,00.0,31.2,24.5,06.5,0000.0,0002.57,0000.44,0000.33
2022-11-10 16:56:00,,0820.7,5.00,0.00,22.6,21.5,00.0,31.3,24.5,06.4,0000.0,0001.67,0000.43,0000.33
2022-11-10 16:57:00,,0820.8,5.01,0.00,22.6,21.5,00.0,31.3,24.5,06.6,0000.0,0001.64,0000.46,0000.35
2022-11-10 16:58:00,,0821.0,4.99,0.00,22.6,21.5,00.0,31.3,24.6,06.6,0000.0,0001.95,0000.57,0000.40
2022-11-10 16:59:00,,0820.9,4.98,0.00,22.6,21.5,00.0,31.3,24.6,06.6,0000.0,0001.96,0000.59,0000.41
